This is the latest recevied weather packets stored in our database for station/object OE5RBO. If no packets are shown the sender has not sent any weather packets the latest 10 day(s).
| Time | Temp. | Humidity | Pressure | Rain* | Wind** | Luminosity | Snow |
|---|---|---|---|---|---|---|---|
| 1788324227 | 11.67° C | 99% | 1021.3 hPa | 0 mm | - | - | - |
| 1788323027 | 12.22° C | 99% | 1021.2 hPa | 0 mm | - | - | - |
| 1788322427 | 12.22° C | 99% | 1021.2 hPa | 0 mm | - | - | - |
| 1788321826 | 12.22° C | 99% | 1021.4 hPa | 0 mm | - | - | - |
| 1788321226 | 12.22° C | 99% | 1021.6 hPa | 0 mm | - | - | - |
| 1788320625 | 12.22° C | 99% | 1021.4 hPa | 0 mm | - | - | - |
| 1788320025 | 12.78° C | 98% | 1021.2 hPa | 0 mm | - | - | - |
| 1788318824 | 12.78° C | 98% | 1021.7 hPa | 0 mm | - | - | - |
| 1788318224 | 13.33° C | 98% | 1021.7 hPa | 0 mm | - | - | - |
| 1788317624 | 12.78° C | 98% | 1021.8 hPa | 0 mm | - | - | - |
| 1788317023 | 12.78° C | 98% | 1021.9 hPa | 0 mm | - | - | - |
| 1788316423 | 13.33° C | 98% | 1021.8 hPa | 0 mm | - | - | - |
| 1788315222 | 13.33° C | 97% | 1021.9 hPa | 0 mm | - | - | - |
| 1788314622 | 13.33° C | 97% | 1021.9 hPa | 0 mm | - | - | - |
| 1788314021 | 13.33° C | 97% | 1021.7 hPa | 0 mm | - | - | - |
| 1788313421 | 13.89° C | 96% | 1021.9 hPa | 0 mm | - | - | - |
| 1788312220 | 15° C | 95% | 1021.8 hPa | 0 mm | - | - | - |
| 1788311620 | 13.89° C | 97% | 1021.9 hPa | 0 mm | - | - | - |
| 1788311020 | 13.33° C | 97% | 1022 hPa | 0 mm | - | - | - |
| 1788310420 | 13.33° C | 97% | 1022 hPa | 0 mm | - | - | - |
| 1788309218 | 13.89° C | 97% | 1022.1 hPa | 0 mm | - | - | - |
| 1788308618 | 13.89° C | 97% | 1022.2 hPa | 0 mm | - | - | - |
| 1788308018 | 13.89° C | 97% | 1022.1 hPa | 0 mm | - | - | - |
| 1788307417 | 13.89° C | 96% | 1022.1 hPa | 0 mm | - | - | - |
| 1788306221 | 14.44° C | 96% | 1021.9 hPa | 0 mm | - | - | - |
* Rain since midnight (hover to see other rain measurements)
** Current wind speed in m/s (hover to see current wind gust speed)